Tracking 31027 objects as of 19-Jul-2025
HD Live streaming from Space Station
objects crossing your sky now

TITAN 3C TRANSTAGE DEB

Track TITAN 3C TRANSTAGE DEB now!


NORAD ID: 20760
Int'l Code: 1965-108AE
Perigee: 604.6 km
Apogee: 28,768.2 km
Inclination: 27.0 °
Period: 506.8 minutes
Semi major axis: 21057 km
RCS: 0.1468 m2 (medium)
Launch date: December 21, 1965
Source: United States (US)
Launch site: AIR FORCE EASTERN TEST RANGE (AFETR)

Note: This is SATELLITE DEBRIS
Your satellite tracking list
TITAN 3C TRANSTAGE DEB
Track 1 satellite(s)




NASA's NSSDC Master Catalog

Two Line Element Set (TLE):
1 20760U 65108AE  25199.84754344  .00001114  00000-0  11220-1 0  9994
2 20760  27.0426 111.4199 6687323  56.4035 359.2235  2.84116191319119
Source of the keplerian elements: AFSPC